CSZ9918 ZSQD-ZGSZ

Flight info

Callsign CSZ9918
Flight time 2h 46m
Altitude 33100
Route LAT81D LATUX W108 MATNU/K0867S0980 W115 PINOT W13 HSN/K0870S1010 W13 TOGUG/K0878S0980 W13 BEGMO W117 DST B221 LJG A470 BEBEM R200 OVGOT OVGOT3
Aircraft A320/M-SDE3FGHIRWY/LB1

Departure

Time 2026-04-19 06:52
Airport Qingdao Jiaodong International Airport (ZSQD)

Arrival

Time 2026-04-19 09:39
Airport Shenzhen Bao'an International Airport (ZGSZ)
Time Latitude Longitude Altitude Speed Heading
2026-04-19 06:28 36.36469 120.09240 35 ft 0 kts 312°
2026-04-19 06:42 36.36460 120.09252 35 ft 4 kts 314°
2026-04-19 06:42 36.36441 120.09275 35 ft 4 kts 319°
2026-04-19 06:43 36.36420 120.09296 34 ft 4 kts 329°
2026-04-19 06:43 36.36396 120.09308 36 ft 4 kts
2026-04-19 06:43 36.36383 120.09302 35 ft 1 kts 42°
2026-04-19 06:43 36.36382 120.09301 35 ft 0 kts 42°
2026-04-19 06:45 36.36387 120.09306 35 ft 2 kts 42°
2026-04-19 06:46 36.36408 120.09330 36 ft 6 kts 43°
2026-04-19 06:46 36.36451 120.09380 36 ft 10 kts 46°
2026-04-19 06:46 36.36482 120.09470 35 ft 13 kts 72°
2026-04-19 06:46 36.36512 120.09582 34 ft 11 kts 65°
2026-04-19 06:47 36.36581 120.09590 35 ft 10 kts 342°
2026-04-19 06:47 36.36648 120.09564 34 ft 11 kts 342°
2026-04-19 06:47 36.36728 120.09533 34 ft 14 kts 342°
2026-04-19 06:47 36.36836 120.09490 32 ft 18 kts 342°
2026-04-19 06:48 36.36966 120.09441 33 ft 21 kts 343°
2026-04-19 06:48 36.37113 120.09382 32 ft 23 kts 342°
2026-04-19 06:48 36.37269 120.09320 32 ft 24 kts 342°
2026-04-19 06:48 36.37436 120.09255 32 ft 26 kts 342°
2026-04-19 06:49 36.37602 120.09189 36 ft 24 kts 342°
2026-04-19 06:49 36.37760 120.09127 38 ft 23 kts 342°
2026-04-19 06:49 36.37903 120.09071 38 ft 21 kts 342°
2026-04-19 06:49 36.38029 120.09022 34 ft 13 kts 342°
2026-04-19 06:50 36.38088 120.09058 36 ft 9 kts 71°
2026-04-19 06:50 36.38104 120.09122 37 ft 6 kts 73°
2026-04-19 06:50 36.38113 120.09175 37 ft 8 kts 82°
2026-04-19 06:50 36.38110 120.09259 37 ft 12 kts 102°
2026-04-19 06:51 36.38066 120.09345 37 ft 12 kts 150°
2026-04-19 06:51 36.38001 120.09368 38 ft 0 kts 161°
2026-04-19 06:51 36.37994 120.09371 37 ft 7 kts 161°
2026-04-19 06:51 36.37740 120.09472 37 ft 73 kts 162°
2026-04-19 06:52 36.37062 120.09738 36 ft 129 kts 162°
2026-04-19 06:52 36.36053 120.10136 100 ft 167 kts 161°
2026-04-19 06:52 36.34957 120.10584 706 ft 167 kts 164°
2026-04-19 06:52 36.33900 120.11197 1416 ft 169 kts 153°
2026-04-19 06:53 36.32879 120.11996 1897 ft 184 kts 151°
2026-04-19 06:53 36.31742 120.12928 2166 ft 208 kts 150°
2026-04-19 06:53 36.30472 120.13979 2474 ft 232 kts 150°
2026-04-19 06:53 36.29066 120.15135 3034 ft 249 kts 149°
2026-04-19 06:54 36.27683 120.16467 3717 ft 259 kts 131°
2026-04-19 06:54 36.27010 120.18558 4453 ft 272 kts 96°
2026-04-19 06:54 36.27201 120.20915 5268 ft 279 kts 78°
2026-04-19 06:54 36.27784 120.23221 6094 ft 282 kts 72°
2026-04-19 06:55 36.28504 120.25503 6873 ft 285 kts 70°
2026-04-19 06:55 36.29242 120.27798 7620 ft 288 kts 70°
2026-04-19 06:55 36.29954 120.30136 8356 ft 292 kts 74°
2026-04-19 06:55 36.30217 120.32610 9083 ft 291 kts 100°
2026-04-19 06:56 36.29511 120.34931 9807 ft 290 kts 128°
2026-04-19 06:56 36.28016 120.36592 10328 ft 296 kts 154°
2026-04-19 06:56 36.26017 120.37498 10505 ft 317 kts 165°
2026-04-19 06:56 36.23830 120.38319 10642 ft 340 kts 164°
2026-04-19 06:57 36.21491 120.39192 10765 ft 362 kts 164°
2026-04-19 06:57 36.19034 120.40120 11074 ft 375 kts 164°
2026-04-19 06:57 36.16519 120.41086 11605 ft 381 kts 164°
2026-04-19 06:57 36.13971 120.42076 12171 ft 386 kts 164°
2026-04-19 06:58 36.11397 120.43082 12735 ft 391 kts 164°
2026-04-19 06:58 36.08785 120.44099 13286 ft 396 kts 164°
2026-04-19 06:58 36.06148 120.45123 13832 ft 400 kts 164°
2026-04-19 06:58 36.03472 120.46160 14324 ft 404 kts 164°
2026-04-19 06:59 36.00771 120.47203 14817 ft 408 kts 164°
2026-04-19 06:59 35.98047 120.48254 15312 ft 412 kts 164°
2026-04-19 06:59 35.95320 120.49403 15799 ft 417 kts 158°
2026-04-19 06:59 35.92650 120.50861 16278 ft 421 kts 157°
2026-04-19 07:00 35.89960 120.52344 16755 ft 426 kts 157°
2026-04-19 07:00 35.87247 120.53839 17230 ft 430 kts 156°
2026-04-19 07:00 35.84508 120.55351 17695 ft 433 kts 156°
2026-04-19 07:00 35.81740 120.56873 18148 ft 437 kts 157°
2026-04-19 07:01 35.78945 120.58401 18550 ft 441 kts 157°
2026-04-19 07:01 35.76129 120.59933 18933 ft 444 kts 157°
2026-04-19 07:01 35.73292 120.61481 19320 ft 447 kts 156°
2026-04-19 07:01 35.70479 120.63156 19705 ft 450 kts 153°
2026-04-19 07:02 35.67708 120.64979 20076 ft 453 kts 151°
2026-04-19 07:02 35.64958 120.66897 20451 ft 456 kts 150°
2026-04-19 07:02 35.62203 120.68858 20811 ft 459 kts 150°
2026-04-19 07:02 35.59468 120.70795 21159 ft 461 kts 150°
2026-04-19 07:03 35.56670 120.72742 21505 ft 464 kts 151°
2026-04-19 07:03 35.53840 120.74675 21844 ft 466 kts 151°
2026-04-19 07:03 35.50990 120.76592 22163 ft 468 kts 152°
2026-04-19 07:03 35.48093 120.78450 22481 ft 471 kts 156°
2026-04-19 07:04 35.45052 120.79965 22786 ft 473 kts 159°
2026-04-19 07:04 35.41987 120.81463 23097 ft 475 kts 158°
2026-04-19 07:04 35.38914 120.82983 23399 ft 478 kts 158°
2026-04-19 07:04 35.35825 120.84519 23669 ft 480 kts 158°
2026-04-19 07:05 35.32727 120.86061 23920 ft 482 kts 158°
2026-04-19 07:05 35.29608 120.87609 24159 ft 484 kts 158°
2026-04-19 07:05 35.26477 120.89157 24387 ft 487 kts 158°
2026-04-19 07:05 35.24393 120.90185 24532 ft 488 kts 158°
2026-04-19 07:06 35.21235 120.91743 24746 ft 491 kts 158°
2026-04-19 07:06 35.18065 120.93306 24957 ft 493 kts 158°
2026-04-19 07:06 35.14875 120.94876 25166 ft 495 kts 158°
2026-04-19 07:06 35.11679 120.96454 25368 ft 497 kts 158°
2026-04-19 07:07 35.08466 120.98049 25561 ft 499 kts 158°
2026-04-19 07:07 35.05245 120.99654 25750 ft 501 kts 158°
2026-04-19 07:07 35.02011 121.01263 25934 ft 503 kts 158°
2026-04-19 07:07 34.98765 121.02876 26113 ft 505 kts 158°
2026-04-19 07:08 34.95500 121.04494 26285 ft 507 kts 158°
2026-04-19 07:08 34.92230 121.06112 26460 ft 508 kts 158°
2026-04-19 07:08 34.88953 121.07733 26689 ft 508 kts 158°
2026-04-19 07:08 34.85674 121.09356 26938 ft 508 kts 158°
2026-04-19 07:09 34.82397 121.10975 27174 ft 508 kts 158°
2026-04-19 07:09 34.79121 121.12588 27409 ft 509 kts 158°
2026-04-19 07:09 34.75836 121.14204 27651 ft 509 kts 158°
2026-04-19 07:09 34.72556 121.15822 27901 ft 509 kts 158°
2026-04-19 07:10 34.69277 121.17441 28147 ft 509 kts 158°
2026-04-19 07:10 34.65989 121.19059 28402 ft 509 kts 158°
2026-04-19 07:10 34.62697 121.20675 28662 ft 509 kts 158°
2026-04-19 07:10 34.59413 121.22286 28895 ft 510 kts 158°
2026-04-19 07:11 34.56126 121.23895 29153 ft 509 kts 158°
2026-04-19 07:11 34.52840 121.25503 29405 ft 510 kts 158°
2026-04-19 07:11 34.49549 121.27112 29657 ft 510 kts 158°
2026-04-19 07:11 34.46260 121.28721 29926 ft 510 kts 158°
2026-04-19 07:12 34.42972 121.30329 30169 ft 509 kts 158°
2026-04-19 07:12 34.39687 121.31934 30402 ft 509 kts 158°
2026-04-19 07:12 34.36404 121.33538 30639 ft 508 kts 158°
2026-04-19 07:12 34.33123 121.35139 30881 ft 508 kts 158°
2026-04-19 07:13 34.29852 121.36733 31102 ft 507 kts 157°
2026-04-19 07:13 34.26580 121.38324 31345 ft 507 kts 158°
2026-04-19 07:13 34.23309 121.39911 31590 ft 506 kts 157°
2026-04-19 07:13 34.20047 121.41495 31832 ft 505 kts 157°
2026-04-19 07:14 34.16791 121.43075 32069 ft 504 kts 157°
2026-04-19 07:14 34.13535 121.44652 32312 ft 504 kts 157°
2026-04-19 07:14 34.10287 121.46226 32544 ft 503 kts 157°
2026-04-19 07:14 34.07042 121.47799 32787 ft 502 kts 157°
2026-04-19 07:15 34.03807 121.49367 33018 ft 502 kts 158°
2026-04-19 07:15 34.00558 121.50935 33084 ft 504 kts 158°
2026-04-19 07:16 33.90783 121.55649 33085 ft 505 kts 158°
2026-04-19 07:16 33.84310 121.58773 33080 ft 505 kts 158°
2026-04-19 07:17 33.77789 121.61914 33080 ft 505 kts 158°
2026-04-19 07:17 33.71265 121.65037 33082 ft 505 kts 158°
2026-04-19 07:18 33.64751 121.68192 33080 ft 505 kts 157°
2026-04-19 07:18 33.58259 121.71388 33074 ft 505 kts 157°
2026-04-19 07:19 33.51762 121.74586 33070 ft 505 kts 157°
2026-04-19 07:19 33.45253 121.77767 33071 ft 505 kts 157°
2026-04-19 07:20 33.38742 121.80942 33069 ft 506 kts 157°
2026-04-19 07:20 33.32218 121.84103 33072 ft 506 kts 157°
2026-04-19 07:21 33.25697 121.87273 33072 ft 506 kts 157°
2026-04-19 07:21 33.19175 121.90441 33068 ft 506 kts 157°
2026-04-19 07:22 33.12649 121.93610 33067 ft 506 kts 157°
2026-04-19 07:22 33.06121 121.96767 33066 ft 506 kts 157°
2026-04-19 07:23 32.99638 121.99890 33064 ft 506 kts 157°
2026-04-19 07:23 32.93113 122.03027 33064 ft 506 kts 157°
2026-04-19 07:24 32.86580 122.06178 33063 ft 506 kts 157°
2026-04-19 07:24 32.80055 122.09324 33068 ft 506 kts 157°
2026-04-19 07:25 32.73523 122.12455 33061 ft 506 kts 157°
2026-04-19 07:25 32.66990 122.15571 33059 ft 506 kts 157°
2026-04-19 07:26 32.60467 122.18689 33058 ft 506 kts 157°
2026-04-19 07:26 32.53941 122.21808 33052 ft 505 kts 157°
2026-04-19 07:27 32.47426 122.24925 33051 ft 505 kts 157°
2026-04-19 07:27 32.40916 122.28030 33050 ft 504 kts 158°
2026-04-19 07:28 32.34406 122.31118 33048 ft 504 kts 158°
2026-04-19 07:28 32.27899 122.34194 33048 ft 503 kts 158°
2026-04-19 07:29 32.21404 122.37270 33043 ft 503 kts 158°
2026-04-19 07:29 32.14913 122.40339 33046 ft 502 kts 158°
2026-04-19 07:30 32.08432 122.43409 33047 ft 502 kts 158°
2026-04-19 07:30 32.01946 122.46476 33051 ft 502 kts 158°
2026-04-19 07:31 31.95458 122.49529 33051 ft 502 kts 159°
2026-04-19 07:31 31.88980 122.52571 33058 ft 501 kts 159°
2026-04-19 07:32 31.82507 122.55606 33058 ft 500 kts 159°
2026-04-19 07:32 31.76088 122.58612 33057 ft 499 kts 160°
2026-04-19 07:32 31.72725 122.59777 33053 ft 497 kts 171°
2026-04-19 07:33 31.69354 122.60224 33051 ft 493 kts 182°
2026-04-19 07:33 31.62678 122.59041 33040 ft 482 kts 203°
2026-04-19 07:34 31.56876 122.55360 33029 ft 471 kts 221°
2026-04-19 07:34 31.51628 122.50766 33024 ft 471 kts 221°
2026-04-19 07:35 31.46031 122.46702 33023 ft 480 kts 207°
2026-04-19 07:35 31.39518 122.44731 33192 ft 490 kts 188°
2026-04-19 07:35 31.36113 122.44494 33403 ft 490 kts 186°
2026-04-19 07:36 31.32710 122.44290 33629 ft 489 kts 186°
2026-04-19 07:36 31.29317 122.44090 33866 ft 487 kts 186°
2026-04-19 07:36 31.25937 122.43896 34018 ft 486 kts 186°
2026-04-19 07:37 31.19194 122.43523 34044 ft 484 kts 186°
2026-04-19 07:37 31.12470 122.43149 34044 ft 483 kts 186°
2026-04-19 07:38 31.05759 122.42769 34043 ft 482 kts 187°
2026-04-19 07:38 30.99062 122.42387 34051 ft 482 kts 187°
2026-04-19 07:39 30.92366 122.42005 34042 ft 481 kts 187°
2026-04-19 07:39 30.85677 122.41632 34042 ft 481 kts 187°
2026-04-19 07:40 30.78994 122.41253 34044 ft 480 kts 187°
2026-04-19 07:40 30.72322 122.40867 34036 ft 480 kts 187°
2026-04-19 07:41 30.65652 122.40487 34036 ft 480 kts 187°
2026-04-19 07:41 30.58986 122.40122 34035 ft 480 kts 187°
2026-04-19 07:42 30.52317 122.39765 34029 ft 479 kts 187°
2026-04-19 07:42 30.45651 122.39421 34031 ft 479 kts 187°
2026-04-19 07:43 30.39030 122.39078 34033 ft 479 kts 187°
2026-04-19 07:43 30.32375 122.38724 34038 ft 479 kts 187°
2026-04-19 07:44 30.25721 122.38368 34042 ft 478 kts 187°
2026-04-19 07:44 30.19077 122.37989 34043 ft 477 kts 188°
2026-04-19 07:45 30.12457 122.37561 34039 ft 476 kts 188°
2026-04-19 07:45 30.05841 122.37133 34045 ft 475 kts 188°
2026-04-19 07:46 29.99241 122.36720 34044 ft 474 kts 188°
2026-04-19 07:46 29.92633 122.36597 34050 ft 479 kts 179°
2026-04-19 07:47 29.86038 122.38004 34056 ft 483 kts 173°
2026-04-19 07:47 29.79463 122.39550 34055 ft 482 kts 174°
2026-04-19 07:48 29.72901 122.41076 34059 ft 481 kts 174°
2026-04-19 07:48 29.66351 122.42594 34060 ft 480 kts 174°
2026-04-19 07:49 29.59807 122.44115 34063 ft 479 kts 174°
2026-04-19 07:49 29.53276 122.45641 34062 ft 478 kts 174°
2026-04-19 07:50 29.46760 122.47155 34063 ft 477 kts 174°
2026-04-19 07:50 29.40257 122.48657 34063 ft 476 kts 175°
2026-04-19 07:51 29.34861 122.49903 34062 ft 475 kts 175°
2026-04-19 07:51 29.28382 122.51403 34062 ft 475 kts 175°
2026-04-19 07:52 29.21916 122.52136 34058 ft 460 kts 190°
2026-04-19 07:52 29.15792 122.50679 34053 ft 442 kts 207°
2026-04-19 07:53 29.10321 122.47644 34054 ft 436 kts 213°
2026-04-19 07:53 29.04932 122.44450 34050 ft 436 kts 213°
2026-04-19 07:54 28.99541 122.41270 34046 ft 436 kts 213°
2026-04-19 07:54 28.94135 122.38100 34045 ft 436 kts 213°
2026-04-19 07:55 28.88736 122.34932 34045 ft 436 kts 213°
2026-04-19 07:55 28.83336 122.31763 34050 ft 436 kts 213°
2026-04-19 07:56 28.77939 122.28603 34046 ft 436 kts 213°
2026-04-19 07:56 28.72548 122.25440 34041 ft 436 kts 214°
2026-04-19 07:57 28.67160 122.22289 34036 ft 436 kts 213°
2026-04-19 07:57 28.61763 122.19146 34034 ft 435 kts 214°
2026-04-19 07:58 28.56372 122.16000 34035 ft 435 kts 214°
2026-04-19 07:58 28.51017 122.12871 34033 ft 436 kts 214°
2026-04-19 07:59 28.45620 122.09737 34032 ft 436 kts 214°
2026-04-19 07:59 28.40216 122.06606 34026 ft 436 kts 214°
2026-04-19 08:00 28.34816 122.03464 34035 ft 436 kts 214°
2026-04-19 08:00 28.29416 122.00326 34026 ft 436 kts 214°
2026-04-19 08:01 28.24003 121.97192 34031 ft 437 kts 214°
2026-04-19 08:01 28.18587 121.94058 34028 ft 437 kts 214°
2026-04-19 08:02 28.13159 121.90929 34029 ft 438 kts 214°
2026-04-19 08:02 28.07727 121.87799 34030 ft 438 kts 214°
2026-04-19 08:03 28.02773 121.84009 34028 ft 423 kts 231°
2026-04-19 08:03 27.99441 121.78723 34026 ft 408 kts 250°
2026-04-19 08:04 27.97823 121.72650 34026 ft 402 kts 260°
2026-04-19 08:04 27.96562 121.66473 34026 ft 403 kts 260°
2026-04-19 08:05 27.95292 121.60301 34033 ft 403 kts 260°
2026-04-19 08:05 27.94022 121.54123 34032 ft 403 kts 260°
2026-04-19 08:06 27.92748 121.47941 34024 ft 404 kts 260°
2026-04-19 08:06 27.91472 121.41752 34028 ft 405 kts 260°
2026-04-19 08:07 27.90194 121.35550 34023 ft 405 kts 260°
2026-04-19 08:07 27.88905 121.29345 34024 ft 406 kts 260°
2026-04-19 08:08 27.87620 121.23173 34022 ft 406 kts 261°
2026-04-19 08:08 27.86322 121.16960 34024 ft 407 kts 261°
2026-04-19 08:09 27.85029 121.10734 34026 ft 407 kts 261°
2026-04-19 08:09 27.83738 121.04504 34027 ft 407 kts 261°
2026-04-19 08:10 27.82434 120.98277 34025 ft 407 kts 261°
2026-04-19 08:10 27.81118 120.92048 34026 ft 408 kts 261°
2026-04-19 08:11 27.79807 120.85819 34024 ft 408 kts 261°
2026-04-19 08:11 27.78499 120.79578 34026 ft 408 kts 261°
2026-04-19 08:12 27.77184 120.73338 34026 ft 409 kts 261°
2026-04-19 08:12 27.75695 120.67133 34021 ft 414 kts 253°
2026-04-19 08:12 27.74340 120.64234 34022 ft 423 kts 242°
2026-04-19 08:13 27.72458 120.61630 34014 ft 434 kts 231°
2026-04-19 08:13 27.70085 120.59462 34015 ft 446 kts 221°
2026-04-19 08:13 27.67455 120.57582 34011 ft 448 kts 220°
2026-04-19 08:14 27.62188 120.53836 34008 ft 448 kts 220°
2026-04-19 08:14 27.54270 120.48196 34013 ft 449 kts 220°
2026-04-19 08:15 27.48981 120.44433 34017 ft 449 kts 220°
2026-04-19 08:15 27.43694 120.40671 34021 ft 450 kts 220°
2026-04-19 08:16 27.38410 120.36913 34026 ft 449 kts 220°
2026-04-19 08:16 27.33122 120.33160 34030 ft 449 kts 220°
2026-04-19 08:17 27.27859 120.29441 34030 ft 449 kts 220°
2026-04-19 08:17 27.22569 120.25704 34034 ft 449 kts 220°
2026-04-19 08:18 27.17278 120.21975 34041 ft 448 kts 220°
2026-04-19 08:18 27.12001 120.18258 34040 ft 447 kts 220°
2026-04-19 08:19 27.06744 120.14529 34043 ft 447 kts 221°
2026-04-19 08:19 27.01499 120.10790 34036 ft 447 kts 221°
2026-04-19 08:20 26.96249 120.07057 34042 ft 447 kts 221°
2026-04-19 08:20 26.90996 120.03327 34044 ft 447 kts 221°
2026-04-19 08:21 26.85749 119.99610 34041 ft 446 kts 221°
2026-04-19 08:21 26.80494 119.95901 34042 ft 446 kts 221°
2026-04-19 08:22 26.75245 119.92201 34043 ft 446 kts 221°
2026-04-19 08:22 26.70002 119.88511 34044 ft 445 kts 221°
2026-04-19 08:23 26.64764 119.84828 34058 ft 445 kts 221°
2026-04-19 08:23 26.59529 119.81144 34051 ft 444 kts 221°
2026-04-19 08:24 26.54300 119.77472 34049 ft 444 kts 221°
2026-04-19 08:24 26.49074 119.73807 34048 ft 444 kts 221°
2026-04-19 08:25 26.43843 119.70138 34048 ft 443 kts 221°
2026-04-19 08:25 26.38625 119.66477 34051 ft 443 kts 221°
2026-04-19 08:26 26.33410 119.62813 34057 ft 443 kts 221°
2026-04-19 08:26 26.28229 119.59188 34055 ft 442 kts 221°
2026-04-19 08:27 26.22984 119.55598 34054 ft 446 kts 216°
2026-04-19 08:27 26.20107 119.54204 34051 ft 457 kts 207°
2026-04-19 08:27 26.17053 119.53151 34053 ft 459 kts 206°
2026-04-19 08:28 26.10940 119.51071 34054 ft 459 kts 206°
2026-04-19 08:28 26.04842 119.48985 34044 ft 458 kts 206°
2026-04-19 08:29 25.98748 119.46910 34047 ft 458 kts 205°
2026-04-19 08:29 25.92661 119.44840 34044 ft 457 kts 205°
2026-04-19 08:30 25.86588 119.42774 34048 ft 456 kts 205°
2026-04-19 08:30 25.80520 119.40716 34051 ft 455 kts 205°
2026-04-19 08:31 25.74745 119.38123 34056 ft 439 kts 219°
2026-04-19 08:31 25.70115 119.33949 34052 ft 423 kts 233°
2026-04-19 08:32 25.66089 119.29196 34047 ft 423 kts 233°
2026-04-19 08:32 25.62054 119.24461 34044 ft 423 kts 233°
2026-04-19 08:33 25.58011 119.19732 34039 ft 422 kts 233°
2026-04-19 08:33 25.53984 119.15011 34036 ft 422 kts 233°
2026-04-19 08:34 25.49960 119.10280 34035 ft 422 kts 233°
2026-04-19 08:34 25.45959 119.05593 34030 ft 422 kts 233°
2026-04-19 08:35 25.41922 119.00882 34027 ft 422 kts 232°
2026-04-19 08:35 25.37885 118.96179 34027 ft 422 kts 232°
2026-04-19 08:36 25.33845 118.91471 34021 ft 421 kts 232°
2026-04-19 08:36 25.29871 118.86717 34016 ft 420 kts 233°
2026-04-19 08:37 25.26612 118.82729 34019 ft 421 kts 234°
2026-04-19 08:37 25.22684 118.77939 34018 ft 421 kts 233°
2026-04-19 08:38 25.18736 118.73165 34015 ft 420 kts 233°
2026-04-19 08:38 25.14783 118.68398 34014 ft 421 kts 233°
2026-04-19 08:39 25.10832 118.63646 34008 ft 420 kts 233°
2026-04-19 08:39 25.06852 118.58904 34008 ft 421 kts 232°
2026-04-19 08:40 25.02780 118.54246 34010 ft 422 kts 232°
2026-04-19 08:40 24.98686 118.49609 34009 ft 422 kts 232°
2026-04-19 08:41 24.94611 118.44959 34007 ft 421 kts 232°
2026-04-19 08:41 24.90552 118.40305 34006 ft 421 kts 232°
2026-04-19 08:42 24.86484 118.35652 34003 ft 421 kts 232°
2026-04-19 08:42 24.82422 118.31009 34006 ft 421 kts 232°
2026-04-19 08:43 24.78363 118.26373 34007 ft 421 kts 232°
2026-04-19 08:43 24.74296 118.21736 34009 ft 421 kts 232°
2026-04-19 08:44 24.70230 118.17102 34008 ft 421 kts 232°
2026-04-19 08:44 24.66158 118.12467 34012 ft 421 kts 232°
2026-04-19 08:45 24.62081 118.07834 34012 ft 422 kts 232°
2026-04-19 08:45 24.58004 118.03211 34009 ft 421 kts 231°
2026-04-19 08:46 24.53960 117.98553 34008 ft 420 kts 233°
2026-04-19 08:46 24.50051 117.93796 34005 ft 419 kts 234°
2026-04-19 08:47 24.46160 117.89021 34001 ft 420 kts 233°
2026-04-19 08:47 24.42241 117.84271 33997 ft 420 kts 233°
2026-04-19 08:48 24.38325 117.79560 33998 ft 420 kts 233°
2026-04-19 08:48 24.34388 117.74829 34003 ft 420 kts 233°
2026-04-19 08:49 24.30446 117.70090 34000 ft 420 kts 233°
2026-04-19 08:49 24.26507 117.65357 34005 ft 420 kts 233°
2026-04-19 08:50 24.22563 117.60622 34007 ft 420 kts 233°
2026-04-19 08:50 24.18625 117.55897 33999 ft 420 kts 233°
2026-04-19 08:51 24.14679 117.51175 34005 ft 420 kts 233°
2026-04-19 08:51 24.10390 117.46768 34001 ft 424 kts 228°
2026-04-19 08:52 24.05999 117.42463 34006 ft 424 kts 228°
2026-04-19 08:52 24.01595 117.38154 34006 ft 425 kts 228°
2026-04-19 08:53 23.97196 117.33847 34002 ft 424 kts 228°
2026-04-19 08:53 23.92798 117.29535 34011 ft 425 kts 228°
2026-04-19 08:54 23.88395 117.25223 34014 ft 425 kts 227°
2026-04-19 08:54 23.83984 117.20918 34012 ft 426 kts 227°
2026-04-19 08:55 23.79564 117.16608 34010 ft 426 kts 227°
2026-04-19 08:55 23.75183 117.12267 34015 ft 424 kts 230°
2026-04-19 08:56 23.71087 117.07667 34015 ft 422 kts 233°
2026-04-19 08:56 23.67111 117.02967 34008 ft 422 kts 233°
2026-04-19 08:57 23.63092 116.98303 34010 ft 422 kts 232°
2026-04-19 08:57 23.59022 116.93688 34008 ft 422 kts 232°
2026-04-19 08:58 23.54935 116.89075 34004 ft 423 kts 232°
2026-04-19 08:58 23.50861 116.84457 34003 ft 423 kts 232°
2026-04-19 08:59 23.46786 116.79830 34005 ft 423 kts 232°
2026-04-19 08:59 23.42503 116.75414 33998 ft 429 kts 224°
2026-04-19 09:00 23.37748 116.71470 34001 ft 430 kts 224°
2026-04-19 09:00 23.32999 116.67526 33999 ft 430 kts 224°
2026-04-19 09:01 23.28245 116.63584 33997 ft 430 kts 223°
2026-04-19 09:01 23.23491 116.59636 34004 ft 430 kts 224°
2026-04-19 09:02 23.18740 116.55687 34005 ft 429 kts 223°
2026-04-19 09:02 23.13988 116.51751 34007 ft 430 kts 223°
2026-04-19 09:03 23.09226 116.47817 34004 ft 430 kts 223°
2026-04-19 09:03 23.04466 116.43884 34008 ft 430 kts 223°
2026-04-19 09:04 22.99750 116.39957 34008 ft 428 kts 226°
2026-04-19 09:04 22.96072 116.35073 34012 ft 414 kts 246°
2026-04-19 09:05 22.94307 116.29233 34013 ft 407 kts 264°
2026-04-19 09:05 22.93698 116.23127 34016 ft 407 kts 265°
2026-04-19 09:06 22.93066 116.17013 34015 ft 408 kts 265°
2026-04-19 09:06 22.92426 116.10894 34013 ft 408 kts 264°
2026-04-19 09:07 22.91782 116.04776 34015 ft 408 kts 264°
2026-04-19 09:07 22.91145 115.98654 34020 ft 408 kts 264°
2026-04-19 09:08 22.90507 115.92532 34015 ft 409 kts 264°
2026-04-19 09:08 22.89868 115.86413 34010 ft 409 kts 265°
2026-04-19 09:09 22.89255 115.80281 34009 ft 409 kts 265°
2026-04-19 09:09 22.88651 115.74148 34011 ft 409 kts 265°
2026-04-19 09:10 22.88035 115.68005 34007 ft 410 kts 265°
2026-04-19 09:10 22.87724 115.64928 33769 ft 410 kts 265°
2026-04-19 09:10 22.87410 115.61848 33521 ft 411 kts 265°
2026-04-19 09:11 22.87095 115.58761 33259 ft 413 kts 265°
2026-04-19 09:11 22.86778 115.55663 33003 ft 414 kts 265°
2026-04-19 09:11 22.86460 115.52550 32751 ft 416 kts 265°
2026-04-19 09:11 22.86140 115.49430 32499 ft 417 kts 264°
2026-04-19 09:12 22.85817 115.46296 32251 ft 419 kts 264°
2026-04-19 09:12 22.85490 115.43149 32008 ft 421 kts 264°
2026-04-19 09:12 22.85164 115.39986 31760 ft 423 kts 264°
2026-04-19 09:12 22.84838 115.36815 31521 ft 425 kts 264°
2026-04-19 09:13 22.84512 115.33626 31278 ft 426 kts 264°
2026-04-19 09:13 22.84187 115.30429 30750 ft 427 kts 264°
2026-04-19 09:13 22.83862 115.27254 29726 ft 431 kts 264°
2026-04-19 09:13 22.83530 115.24010 28625 ft 435 kts 264°
2026-04-19 09:14 22.83194 115.20743 27604 ft 437 kts 264°
2026-04-19 09:14 22.82849 115.17465 26521 ft 440 kts 264°
2026-04-19 09:14 22.82498 115.14151 25407 ft 445 kts 264°
2026-04-19 09:14 22.82144 115.10801 24327 ft 450 kts 263°
2026-04-19 09:15 22.81788 115.07418 23223 ft 454 kts 263°
2026-04-19 09:15 22.81429 115.04004 22109 ft 457 kts 263°
2026-04-19 09:15 22.80712 114.97235 20506 ft 449 kts 264°
2026-04-19 09:16 22.80360 114.93886 19693 ft 446 kts 264°
2026-04-19 09:16 22.80012 114.90549 18900 ft 445 kts 264°
2026-04-19 09:16 22.79663 114.87226 18099 ft 444 kts 264°
2026-04-19 09:16 22.79311 114.83914 17269 ft 441 kts 264°
2026-04-19 09:17 22.78959 114.80624 16534 ft 437 kts 264°
2026-04-19 09:17 22.78610 114.77371 15809 ft 433 kts 264°
2026-04-19 09:17 22.78264 114.74143 15102 ft 429 kts 264°
2026-04-19 09:17 22.77929 114.70942 14413 ft 426 kts 264°
2026-04-19 09:18 22.77606 114.67762 13748 ft 422 kts 264°
2026-04-19 09:18 22.77292 114.64618 13040 ft 418 kts 264°
2026-04-19 09:18 22.76979 114.61504 12402 ft 413 kts 264°
2026-04-19 09:18 22.76668 114.58438 11881 ft 407 kts 264°
2026-04-19 09:19 22.76360 114.55412 11697 ft 398 kts 264°
2026-04-19 09:19 22.76062 114.52507 11563 ft 376 kts 264°
2026-04-19 09:19 22.75783 114.49802 11423 ft 346 kts 264°
2026-04-19 09:19 22.75526 114.47317 11301 ft 320 kts 264°
2026-04-19 09:20 22.75286 114.44993 10977 ft 304 kts 264°
2026-04-19 09:20 22.75053 114.42747 10497 ft 296 kts 263°
2026-04-19 09:20 22.74901 114.41287 10431 ft 294 kts 263°
2026-04-19 09:20 22.74674 114.39083 10366 ft 294 kts 263°
2026-04-19 09:21 22.74446 114.36884 10291 ft 294 kts 263°
2026-04-19 09:21 22.74218 114.34684 10173 ft 294 kts 263°
2026-04-19 09:21 22.73989 114.32490 10044 ft 293 kts 264°
2026-04-19 09:21 22.73763 114.30301 9982 ft 292 kts 263°
2026-04-19 09:22 22.73535 114.28095 9464 ft 299 kts 264°
2026-04-19 09:22 22.73307 114.25870 8832 ft 294 kts 264°
2026-04-19 09:22 22.73086 114.23695 8278 ft 288 kts 264°
2026-04-19 09:22 22.72870 114.21562 7726 ft 281 kts 264°
2026-04-19 09:23 22.72654 114.19477 7181 ft 276 kts 264°
2026-04-19 09:23 22.72444 114.17430 6651 ft 271 kts 264°
2026-04-19 09:23 22.72237 114.15416 6119 ft 267 kts 264°
2026-04-19 09:23 22.72032 114.13439 5581 ft 262 kts 263°
2026-04-19 09:24 22.71830 114.11518 5293 ft 247 kts 263°
2026-04-19 09:24 22.71643 114.09742 5230 ft 227 kts 263°
2026-04-19 09:24 22.71470 114.08095 5167 ft 217 kts 263°
2026-04-19 09:24 22.71301 114.06480 5088 ft 215 kts 263°
2026-04-19 09:25 22.71134 114.04872 5002 ft 215 kts 263°
2026-04-19 09:25 22.71077 114.03268 4911 ft 213 kts 279°
2026-04-19 09:25 22.71600 114.01784 4909 ft 213 kts 307°
2026-04-19 09:25 22.72551 114.00549 4919 ft 214 kts 311°
2026-04-19 09:26 22.73526 113.99329 4917 ft 214 kts 311°
2026-04-19 09:26 22.74509 113.98109 4831 ft 216 kts 311°
2026-04-19 09:26 22.75490 113.96892 4706 ft 214 kts 311°
2026-04-19 09:26 22.76469 113.95678 4657 ft 215 kts 311°
2026-04-19 09:27 22.77456 113.94453 4612 ft 215 kts 311°
2026-04-19 09:27 22.78436 113.93237 4563 ft 214 kts 311°
2026-04-19 09:27 22.79403 113.92039 4519 ft 214 kts 311°
2026-04-19 09:27 22.80379 113.90828 4473 ft 213 kts 311°
2026-04-19 09:28 22.81355 113.89618 4423 ft 213 kts 311°
2026-04-19 09:28 22.82331 113.88409 4379 ft 213 kts 311°
2026-04-19 09:28 22.83304 113.87201 4330 ft 213 kts 311°
2026-04-19 09:28 22.84278 113.85990 4282 ft 213 kts 311°
2026-04-19 09:29 22.85253 113.84776 4194 ft 213 kts 311°
2026-04-19 09:29 22.86225 113.83565 4074 ft 212 kts 311°
2026-04-19 09:29 22.87194 113.82359 3912 ft 212 kts 311°
2026-04-19 09:29 22.88164 113.81152 3738 ft 212 kts 310°
2026-04-19 09:30 22.89129 113.79947 3571 ft 211 kts 310°
2026-04-19 09:30 22.90090 113.78751 3422 ft 209 kts 311°
2026-04-19 09:30 22.91017 113.77531 3324 ft 209 kts 300°
2026-04-19 09:30 22.91493 113.76062 3306 ft 207 kts 274°
2026-04-19 09:31 22.91342 113.74526 3301 ft 205 kts 248°
2026-04-19 09:31 22.90714 113.73141 3307 ft 205 kts 240°
2026-04-19 09:31 22.90051 113.71768 3305 ft 206 kts 241°
2026-04-19 09:31 22.89392 113.70388 3305 ft 206 kts 241°
2026-04-19 09:32 22.88637 113.69135 3332 ft 190 kts 220°
2026-04-19 09:32 22.87514 113.68555 3206 ft 176 kts 185°
2026-04-19 09:32 22.86335 113.68757 2961 ft 172 kts 154°
2026-04-19 09:32 22.85268 113.69350 2714 ft 173 kts 153°
2026-04-19 09:33 22.84200 113.69938 2458 ft 171 kts 153°
2026-04-19 09:33 22.83162 113.70507 2340 ft 162 kts 154°
2026-04-19 09:33 22.82198 113.71036 2300 ft 150 kts 153°
2026-04-19 09:33 22.81288 113.71536 2306 ft 145 kts 154°
2026-04-19 09:34 22.80397 113.72026 2299 ft 143 kts 154°
2026-04-19 09:34 22.79507 113.72514 2304 ft 143 kts 154°
2026-04-19 09:34 22.78628 113.72997 2309 ft 141 kts 154°
2026-04-19 09:34 22.77751 113.73478 2307 ft 141 kts 154°
2026-04-19 09:35 22.76872 113.73961 2306 ft 141 kts 154°
2026-04-19 09:35 22.75991 113.74445 2241 ft 142 kts 154°
2026-04-19 09:35 22.75125 113.74921 2113 ft 139 kts 154°
2026-04-19 09:35 22.74279 113.75386 1942 ft 137 kts 155°
2026-04-19 09:36 22.73431 113.75851 1770 ft 136 kts 154°
2026-04-19 09:36 22.72586 113.76314 1601 ft 136 kts 154°
2026-04-19 09:36 22.71746 113.76776 1423 ft 135 kts 154°
2026-04-19 09:36 22.70909 113.77235 1256 ft 135 kts 154°
2026-04-19 09:37 22.70072 113.77694 1069 ft 136 kts 155°
2026-04-19 09:37 22.69217 113.78163 895 ft 139 kts 155°
2026-04-19 09:37 22.68363 113.78632 726 ft 137 kts 155°
2026-04-19 09:37 22.67513 113.79098 559 ft 135 kts 158°
2026-04-19 09:38 22.66686 113.79554 378 ft 132 kts 156°
2026-04-19 09:38 22.65856 113.80009 177 ft 135 kts 155°
2026-04-19 09:38 22.65016 113.80464 24 ft 134 kts 155°
2026-04-19 09:38 22.64285 113.80864 15 ft 96 kts 153°
2026-04-19 09:39 22.63842 113.81108 15 ft 46 kts 153°
2026-04-19 09:39 22.63604 113.81233 15 ft 30 kts 162°
2026-04-19 09:39 22.63436 113.81250 15 ft 20 kts 182°
2026-04-19 09:39 22.63329 113.81236 15 ft 13 kts 215°
2026-04-19 09:40 22.63350 113.81162 15 ft 12 kts 331°
2026-04-19 09:40 22.63420 113.81123 15 ft 11 kts 333°
2026-04-19 09:40 22.63501 113.81079 15 ft 16 kts 333°
2026-04-19 09:40 22.63611 113.81019 15 ft 18 kts 333°
2026-04-19 09:41 22.63653 113.80965 15 ft 8 kts 268°
2026-04-19 09:41 22.63627 113.80922 15 ft 6 kts 210°
2026-04-19 09:41 22.63582 113.80927 15 ft 8 kts 153°
2026-04-19 09:41 22.63517 113.80965 15 ft 13 kts 152°
2026-04-19 09:42 22.63420 113.81017 15 ft 15 kts 153°
2026-04-19 09:42 22.63341 113.81005 17 ft 14 kts 239°
2026-04-19 09:42 22.63304 113.80924 15 ft 8 kts 243°
2026-04-19 09:42 22.63308 113.80886 15 ft 5 kts 322°
2026-04-19 09:43 22.63335 113.80872 15 ft 4 kts 333°
2026-04-19 09:43 22.63355 113.80860 15 ft 2 kts 333°
2026-04-19 09:43 22.63356 113.80860 15 ft 0 kts 333°
2026-04-19 09:43 22.63357 113.80859 15 ft 0 kts 333°